Tracking 29892 objects as of 21-Nov-2024
HD Live streaming from Space Station
objects crossing your sky now

STARLINK-3126

Track STARLINK-3126 now!
10-day predictions
STARLINK-3126 is classified as:


NORAD ID: 49444
Int'l Code: 2021-104AN
Perigee: 545.9 km
Apogee: 547.8 km
Inclination: 53.2 °
Period: 95.4 minutes
Semi major axis: 6917 km
RCS: Unknown
Launch date: November 13, 2021
Source: United States (US)
Launch site: AIR FORCE EASTERN TEST RANGE (AFETR)
Your satellite tracking list
Your tracking list is empty




NASA's NSSDC Master Catalog

Two Line Element Set (TLE):
1 49444U 21104AN  24325.99885346  .00000297  00000-0  36741-4 0  9994
2 49444  53.2145 175.6101 0001383  89.2713 270.8438 15.08841370168478
Source of the keplerian elements: AFSPC